Time,TemperatureF,DewpointF,PressureIn,WindDirection,WindDirectionDegrees,WindSpeedMPH,WindSpeedGustMPH,Humidity,HourlyPrecipIn,Conditions,Clouds,dailyrainin,SoftwareType,DateUTC
2013-05-17 00:00:00,57.2,-99.9,29.94,SSE,151,0.0,0.0,-999,-99.99,,,-99.99,,2013-05-17 07:00:00,
2013-05-17 00:10:00,57.4,-99.9,29.94,SSE,151,0.0,0.0,-999,-99.99,,,-99.99,,2013-05-17 07:10:00,
2013-05-17 00:20:00,57.8,-99.9,29.94,SSE,151,0.0,0.0,-999,-99.99,,,-99.99,,2013-05-17 07:20:00,
2013-05-17 00:25:00,57.8,-99.9,29.94,WNW,290,0.0,0.0,-999,-99.99,,,-99.99,,2013-05-17 07:25:00,
2013-05-17 00:30:00,57.5,-99.9,29.94,WNW,290,0.0,0.0,-999,-99.99,,,-99.99,,2013-05-17 07:30:00,
2013-05-17 00:40:00,57.5,-99.9,29.94,East,95,0.0,7.7,-999,-99.99,,,-99.99,,2013-05-17 07:40:00,
2013-05-17 00:50:00,57.5,-99.9,29.94,East,95,0.0,0.0,-999,-99.99,,,-99.99,,2013-05-17 07:50:00,
2013-05-17 00:55:00,57.3,-99.9,29.94,East,95,0.0,0.0,-999,-99.99,,,-99.99,,2013-05-17 07:55:00,
2013-05-17 01:00:00,57.2,-99.9,29.94,East,95,0.0,0.0,-999,-99.99,,,-99.99,,2013-05-17 08:00:00,
2013-05-17 01:10:00,56.9,-99.9,29.94,East,95,0.0,6.8,-999,-99.99,,,-99.99,,2013-05-17 08:10:00,
2013-05-17 01:15:00,56.8,-99.9,29.94,WSW,252,13.8,16.3,-999,-99.99,,,-99.99,,2013-05-17 08:15:00,
2013-05-17 01:20:00,56.4,-99.9,29.94,NW,309,13.5,13.5,-999,-99.99,,,-99.99,,2013-05-17 08:20:00,
2013-05-17 01:30:00,56.9,-99.9,29.93,SSW,207,0.0,0.0,-999,-99.99,,,-99.99,,2013-05-17 08:30:00,
2013-05-17 01:35:00,56.8,-99.9,29.94,WSW,252,0.0,0.0,-999,-99.99,,,-99.99,,2013-05-17 08:35:00,
2013-05-17 01:40:00,56.7,-99.9,29.93,WSW,252,0.0,0.0,-999,-99.99,,,-99.99,,2013-05-17 08:40:00,
2013-05-17 01:45:00,56.9,-99.9,29.93,WSW,252,0.0,0.0,-999,-99.99,,,-99.99,,2013-05-17 08:45:00,
2013-05-17 01:50:00,56.9,-99.9,29.93,ENE,67,0.0,0.0,-999,-99.99,,,-99.99,,2013-05-17 08:50:00,
2013-05-17 02:00:00,56.8,-99.9,29.93,ESE,119,0.0,8.9,-999,-99.99,,,-99.99,,2013-05-17 09:00:00,
2013-05-17 02:05:00,56.7,-99.9,29.93,ESE,119,0.0,0.0,-999,-99.99,,,-99.99,,2013-05-17 09:05:00,
2013-05-17 02:10:00,56.7,-99.9,29.93,ESE,119,0.0,0.0,-999,-99.99,,,-99.99,,2013-05-17 09:10:00,
2013-05-17 02:15:00,56.7,-99.9,29.92,ESE,119,0.0,0.0,-999,-99.99,,,-99.99,,2013-05-17 09:15:00,
2013-05-17 02:20:00,56.6,-99.9,29.92,ESE,119,0.0,0.0,-999,-99.99,,,-99.99,,2013-05-17 09:20:00,
2013-05-17 02:25:00,56.3,-99.9,29.92,WNW,286,7.9,14.2,-999,-99.99,,,-99.99,,2013-05-17 09:25:00,
2013-05-17 02:30:00,56.5,-99.9,29.92,West,279,0.0,0.0,-999,-99.99,,,-99.99,,2013-05-17 09:30:00,
2013-05-17 02:35:00,56.1,-99.9,29.92,NW,319,7.2,9.0,-999,-99.99,,,-99.99,,2013-05-17 09:35:00,
2013-05-17 02:40:00,56.1,-99.9,29.92,South,187,0.0,10.9,-999,-99.99,,,-99.99,,2013-05-17 09:40:00,
2013-05-17 02:45:00,56.2,-99.9,29.92,West,279,0.0,8.0,-999,-99.99,,,-99.99,,2013-05-17 09:45:00,
2013-05-17 02:50:00,56.4,-99.9,29.91,WSW,237,7.7,9.0,-999,-99.99,,,-99.99,,2013-05-17 09:50:00,
2013-05-17 02:55:00,56.1,-99.9,29.92,West,273,7.9,11.6,-999,-99.99,,,-99.99,,2013-05-17 09:55:00,
2013-05-17 03:00:00,56.0,-99.9,29.92,WSW,256,0.0,0.0,-999,-99.99,,,-99.99,,2013-05-17 10:00:00,
2013-05-17 03:05:00,55.9,-99.9,29.92,SSW,204,0.0,0.0,-999,-99.99,,,-99.99,,2013-05-17 10:05:00,
2013-05-17 03:10:00,56.2,-99.9,29.92,SSW,204,0.0,0.0,-999,-99.99,,,-99.99,,2013-05-17 10:10:00,
2013-05-17 03:15:00,55.8,-99.9,29.92,SSW,204,0.0,0.0,-999,-99.99,,,-99.99,,2013-05-17 10:15:00,
2013-05-17 03:20:00,56.1,-99.9,29.91,SSW,204,0.0,0.0,-999,-99.99,,,-99.99,,2013-05-17 10:20:00,
2013-05-17 03:25:00,56.1,-99.9,29.91,SSW,204,0.0,0.0,-999,-99.99,,,-99.99,,2013-05-17 10:25:00,
2013-05-17 03:30:00,55.8,-99.9,29.92,SSW,204,0.0,0.0,-999,-99.99,,,-99.99,,2013-05-17 10:30:00,
2013-05-17 03:35:00,55.8,-99.9,29.92,SSW,204,0.0,0.0,-999,-99.99,,,-99.99,,2013-05-17 10:35:00,
2013-05-17 03:40:00,55.2,-99.9,29.91,SSW,204,0.0,0.0,-999,-99.99,,,-99.99,,2013-05-17 10:40:00,
2013-05-17 03:45:00,55.3,-99.9,29.91,SSW,204,0.0,0.0,-999,-99.99,,,-99.99,,2013-05-17 10:45:00,
2013-05-17 03:50:00,55.7,-99.9,29.91,SSW,204,0.0,0.0,-999,-99.99,,,-99.99,,2013-05-17 10:50:00,
2013-05-17 03:55:00,55.5,-99.9,29.91,SSW,204,0.0,0.0,-999,-99.99,,,-99.99,,2013-05-17 10:55:00,
2013-05-17 04:00:00,55.5,-99.9,29.91,SSW,204,0.0,0.0,-999,-99.99,,,-99.99,,2013-05-17 11:00:00,
2013-05-17 04:05:00,55.2,-99.9,29.91,SSW,204,9.0,9.0,-999,-99.99,,,-99.99,,2013-05-17 11:05:00,
2013-05-17 04:10:00,55.4,-99.9,29.92,SSW,204,0.0,0.0,-999,-99.99,,,-99.99,,2013-05-17 11:10:00,
2013-05-17 04:20:00,55.2,-99.9,29.91,ESE,103,0.0,0.0,-999,-99.99,,,-99.99,,2013-05-17 11:20:00,
2013-05-17 04:25:00,55.3,-99.9,29.92,ESE,103,0.0,0.0,-999,-99.99,,,-99.99,,2013-05-17 11:25:00,
2013-05-17 04:30:00,55.5,-99.9,29.91,ESE,103,0.0,0.0,-999,-99.99,,,-99.99,,2013-05-17 11:30:00,
2013-05-17 04:35:00,55.3,-99.9,29.91,ESE,103,0.0,0.0,-999,-99.99,,,-99.99,,2013-05-17 11:35:00,
2013-05-17 04:40:00,55.1,-99.9,29.91,ESE,103,0.0,0.0,-999,-99.99,,,-99.99,,2013-05-17 11:40:00,
2013-05-17 04:50:00,54.9,-99.9,29.91,East,90,0.0,7.2,-999,-99.99,,,-99.99,,2013-05-17 11:50:00,
2013-05-17 04:55:00,54.8,-99.9,29.91,East,90,0.0,0.0,-999,-99.99,,,-99.99,,2013-05-17 11:55:00,
2013-05-17 05:00:00,54.6,-99.9,29.91,East,90,0.0,0.0,-999,-99.99,,,-99.99,,2013-05-17 12:00:00,
2013-05-17 05:05:00,54.7,-99.9,29.91,East,90,0.0,0.0,-999,-99.99,,,-99.99,,2013-05-17 12:05:00,
2013-05-17 05:10:00,54.8,-99.9,29.91,East,90,0.0,0.0,-999,-99.99,,,-99.99,,2013-05-17 12:10:00,
2013-05-17 05:15:00,54.8,-99.9,29.91,East,90,0.0,0.0,-999,-99.99,,,-99.99,,2013-05-17 12:15:00,
2013-05-17 05:20:00,55.0,-99.9,29.91,East,90,0.0,0.0,-999,-99.99,,,-99.99,,2013-05-17 12:20:00,
2013-05-17 05:25:00,54.6,-99.9,29.91,East,90,0.0,0.0,-999,-99.99,,,-99.99,,2013-05-17 12:25:00,
2013-05-17 05:30:00,54.5,-99.9,29.91,East,90,0.0,0.0,-999,-99.99,,,-99.99,,2013-05-17 12:30:00,
2013-05-17 05:35:00,54.7,-99.9,29.91,East,90,0.0,0.0,-999,-99.99,,,-99.99,,2013-05-17 12:35:00,
2013-05-17 05:40:00,54.6,-99.9,29.91,East,90,0.0,0.0,-999,-99.99,,,-99.99,,2013-05-17 12:40:00,
2013-05-17 05:45:00,54.6,-99.9,29.91,East,90,0.0,0.0,-999,-99.99,,,-99.99,,2013-05-17 12:45:00,
2013-05-17 05:50:00,54.5,-99.9,29.91,East,90,0.0,0.0,-999,-99.99,,,-99.99,,2013-05-17 12:50:00,
2013-05-17 06:00:00,54.4,-99.9,29.91,East,90,0.0,0.0,-999,-99.99,,,-99.99,,2013-05-17 13:00:00,
2013-05-17 06:10:00,54.2,-99.9,29.92,East,90,0.0,0.0,-999,-99.99,,,-99.99,,2013-05-17 13:10:00,
2013-05-17 06:15:00,54.1,-99.9,29.92,East,90,0.0,0.0,-999,-99.99,,,-99.99,,2013-05-17 13:15:00,
2013-05-17 06:20:00,53.8,-99.9,29.92,East,90,0.0,0.0,-999,-99.99,,,-99.99,,2013-05-17 13:20:00,
2013-05-17 06:30:00,54.2,-99.9,29.92,East,90,0.0,0.0,-999,-99.99,,,-99.99,,2013-05-17 13:30:00,
2013-05-17 06:40:00,54.3,-99.9,29.92,East,93,0.0,8.9,-999,-99.99,,,-99.99,,2013-05-17 13:40:00,
2013-05-17 06:45:00,54.5,-99.9,29.92,East,93,0.0,0.0,-999,-99.99,,,-99.99,,2013-05-17 13:45:00,
2013-05-17 06:50:00,54.2,-99.9,29.92,ESE,105,0.0,7.7,-999,-99.99,,,-99.99,,2013-05-17 13:50:00,
2013-05-17 06:55:00,54.2,-99.9,29.92,ESE,105,0.0,0.0,-999,-99.99,,,-99.99,,2013-05-17 13:55:00,
2013-05-17 07:00:00,54.3,-99.9,29.93,ESE,105,0.0,0.0,-999,-99.99,,,-99.99,,2013-05-17 14:00:00,
2013-05-17 07:05:00,54.4,-99.9,29.93,ESE,105,0.0,0.0,-999,-99.99,,,-99.99,,2013-05-17 14:05:00,
2013-05-17 07:10:00,54.2,-99.9,29.93,ESE,105,0.0,0.0,-999,-99.99,,,-99.99,,2013-05-17 14:10:00,
2013-05-17 07:20:00,54.4,-99.9,29.93,ESE,105,0.0,0.0,-999,-99.99,,,-99.99,,2013-05-17 14:20:00,
2013-05-17 07:25:00,54.3,-99.9,29.93,ESE,105,0.0,0.0,-999,-99.99,,,-99.99,,2013-05-17 14:25:00,
2013-05-17 07:30:00,54.1,-99.9,29.93,ESE,105,0.0,0.0,-999,-99.99,,,-99.99,,2013-05-17 14:30:00,
2013-05-17 07:40:00,54.5,-99.9,29.93,ESE,105,0.0,0.0,-999,-99.99,,,-99.99,,2013-05-17 14:40:00,
2013-05-17 07:45:00,54.5,-99.9,29.93,ESE,105,0.0,0.0,-999,-99.99,,,-99.99,,2013-05-17 14:45:00,
2013-05-17 07:50:00,54.6,-99.9,29.94,ESE,105,0.0,0.0,-999,-99.99,,,-99.99,,2013-05-17 14:50:00,
2013-05-17 08:00:00,55.0,-99.9,29.94,ESE,105,0.0,0.0,-999,-99.99,,,-99.99,,2013-05-17 15:00:00,
2013-05-17 08:10:00,56.0,-99.9,29.94,ESE,105,0.0,0.0,-999,-99.99,,,-99.99,,2013-05-17 15:10:00,
2013-05-17 08:20:00,55.8,-99.9,29.95,South,175,0.0,0.0,-999,-99.99,,,-99.99,,2013-05-17 15:20:00,
2013-05-17 08:25:00,55.8,-99.9,29.95,WSW,251,7.9,11.3,-999,-99.99,,,-99.99,,2013-05-17 15:25:00,
2013-05-17 08:30:00,55.9,-99.9,29.95,SW,225,0.0,0.0,-999,-99.99,,,-99.99,,2013-05-17 15:30:00,
2013-05-17 08:40:00,56.0,-99.9,29.95,WSW,238,0.0,0.0,-999,-99.99,,,-99.99,,2013-05-17 15:40:00,
2013-05-17 08:45:00,56.1,-99.9,29.95,WSW,238,0.0,0.0,-999,-99.99,,,-99.99,,2013-05-17 15:45:00,
2013-05-17 08:50:00,56.2,-99.9,29.95,WSW,238,0.0,0.0,-999,-99.99,,,-99.99,,2013-05-17 15:50:00,
2013-05-17 09:00:00,56.4,-99.9,29.95,East,83,0.0,0.0,-999,-99.99,,,-99.99,,2013-05-17 16:00:00,
2013-05-17 09:10:00,56.7,-99.9,29.95,East,83,0.0,0.0,-999,-99.99,,,-99.99,,2013-05-17 16:10:00,
2013-05-17 09:20:00,56.8,-99.9,29.96,SSW,208,0.0,0.0,-999,-99.99,,,-99.99,,2013-05-17 16:20:00,
2013-05-17 09:30:00,57.1,-99.9,29.96,West,272,0.0,0.0,-999,-99.99,,,-99.99,,2013-05-17 16:30:00,
2013-05-17 09:40:00,57.5,-99.9,29.96,ESE,114,0.0,0.0,-999,-99.99,,,-99.99,,2013-05-17 16:40:00,
2013-05-17 09:50:00,57.6,-99.9,29.96,ESE,114,0.0,0.0,-999,-99.99,,,-99.99,,2013-05-17 16:50:00,
2013-05-17 10:00:00,57.8,-99.9,29.96,East,98,0.0,0.0,-999,-99.99,,,-99.99,,2013-05-17 17:00:00,
2013-05-17 10:10:00,58.1,-99.9,29.96,ESE,103,0.0,15.0,-999,-99.99,,,-99.99,,2013-05-17 17:10:00,
2013-05-17 10:20:00,58.0,-99.9,29.96,West,269,0.0,8.9,-999,-99.99,,,-99.99,,2013-05-17 17:20:00,
2013-05-17 10:30:00,58.3,-99.9,29.96,South,170,0.0,0.0,-999,-99.99,,,-99.99,,2013-05-17 17:30:00,
2013-05-17 10:40:00,58.4,-99.9,29.96,WSW,237,0.0,0.0,-999,-99.99,,,-99.99,,2013-05-17 17:40:00,
2013-05-17 10:50:00,58.7,-99.9,29.97,SW,228,0.0,8.5,-999,-99.99,,,-99.99,,2013-05-17 17:50:00,
2013-05-17 11:00:00,58.8,-99.9,29.96,SW,218,0.0,15.8,-999,-99.99,,,-99.99,,2013-05-17 18:00:00,
2013-05-17 11:10:00,59.0,-99.9,29.97,WNW,283,5.8,10.9,-999,-99.99,,,-99.99,,2013-05-17 18:10:00,
2013-05-17 11:20:00,59.2,-99.9,29.97,NW,321,0.0,0.0,-999,-99.99,,,-99.99,,2013-05-17 18:20:00,
2013-05-17 11:30:00,59.5,-99.9,29.97,West,261,12.6,20.9,-999,-99.99,,,-99.99,,2013-05-17 18:30:00,
2013-05-17 11:35:00,59.5,-99.9,29.97,East,93,0.0,10.6,-999,-99.99,,,-99.99,,2013-05-17 18:35:00,
2013-05-17 11:40:00,59.8,-99.9,29.97,WSW,242,0.0,6.3,-999,-99.99,,,-99.99,,2013-05-17 18:40:00,
2013-05-17 11:50:00,59.8,-99.9,29.97,SSW,197,0.0,23.0,-999,-99.99,,,-99.99,,2013-05-17 18:50:00,
2013-05-17 12:00:00,60.0,-99.9,29.98,SW,235,5.5,0.0,-999,-99.99,,,-99.99,,2013-05-17 19:00:00,
2013-05-17 12:10:00,60.1,-99.9,29.97,WNW,283,11.1,14.6,-999,-99.99,,,-99.99,,2013-05-17 19:10:00,
2013-05-17 12:20:00,60.3,-99.9,29.98,WSW,247,0.0,7.6,-999,-99.99,,,-99.99,,2013-05-17 19:20:00,
2013-05-17 12:30:00,60.6,-99.9,29.98,West,262,0.0,6.6,-999,-99.99,,,-99.99,,2013-05-17 19:30:00,
2013-05-17 12:40:00,60.8,-99.9,29.98,WSW,249,0.0,13.0,-999,-99.99,,,-99.99,,2013-05-17 19:40:00,
2013-05-17 12:50:00,61.1,-99.9,29.98,WSW,256,0.0,16.9,-999,-99.99,,,-99.99,,2013-05-17 19:50:00,
2013-05-17 12:55:00,61.2,-99.9,29.97,NNW,338,0.0,0.0,-999,-99.99,,,-99.99,,2013-05-17 19:55:00,
2013-05-17 13:00:00,61.2,-99.9,29.98,NNW,338,0.0,0.0,-999,-99.99,,,-99.99,,2013-05-17 20:00:00,
2013-05-17 13:10:00,61.4,-99.9,29.98,West,268,0.0,8.7,-999,-99.99,,,-99.99,,2013-05-17 20:10:00,
2013-05-17 13:15:00,61.5,-99.9,29.98,SSE,155,0.0,18.0,-999,-99.99,,,-99.99,,2013-05-17 20:15:00,
2013-05-17 13:20:00,61.5,-99.9,29.98,WNW,287,7.9,11.3,-999,-99.99,,,-99.99,,2013-05-17 20:20:00,
2013-05-17 13:25:00,61.4,-99.9,29.98,WSW,248,5.3,8.9,-999,-99.99,,,-99.99,,2013-05-17 20:25:00,
2013-05-17 13:30:00,61.5,-99.9,29.98,WSW,251,4.7,7.9,-999,-99.99,,,-99.99,,2013-05-17 20:30:00,
2013-05-17 13:35:00,61.7,-99.9,29.99,WNW,299,0.0,7.4,-999,-99.99,,,-99.99,,2013-05-17 20:35:00,
2013-05-17 13:40:00,61.8,-99.9,29.99,West,278,0.0,11.4,-999,-99.99,,,-99.99,,2013-05-17 20:40:00,
2013-05-17 13:45:00,61.8,-99.9,29.99,SW,215,11.7,11.7,-999,-99.99,,,-99.99,,2013-05-17 20:45:00,
2013-05-17 13:50:00,61.8,-99.9,29.98,South,169,0.0,0.0,-999,-99.99,,,-99.99,,2013-05-17 20:50:00,
2013-05-17 13:55:00,61.9,-99.9,29.98,West,278,0.0,0.0,-999,-99.99,,,-99.99,,2013-05-17 20:55:00,
2013-05-17 14:00:00,62.1,-99.9,29.98,South,180,0.0,15.4,-999,-99.99,,,-99.99,,2013-05-17 21:00:00,
2013-05-17 14:05:00,62.1,-99.9,29.98,SW,230,0.0,8.9,-999,-99.99,,,-99.99,,2013-05-17 21:05:00,
2013-05-17 14:10:00,62.2,-99.9,29.98,West,265,0.0,0.0,-999,-99.99,,,-99.99,,2013-05-17 21:10:00,
2013-05-17 14:15:00,62.3,-99.9,29.98,NNW,331,0.0,0.0,-999,-99.99,,,-99.99,,2013-05-17 21:15:00,
2013-05-17 14:20:00,62.3,-99.9,29.98,West,259,9.0,10.9,-999,-99.99,,,-99.99,,2013-05-17 21:20:00,
2013-05-17 14:25:00,62.6,-99.9,29.98,West,272,0.0,16.7,-999,-99.99,,,-99.99,,2013-05-17 21:25:00,
2013-05-17 14:30:00,62.7,-99.9,29.98,WSW,241,0.0,8.9,-999,-99.99,,,-99.99,,2013-05-17 21:30:00,
2013-05-17 14:35:00,62.9,-99.9,29.98,ESE,112,14.2,16.6,-999,-99.99,,,-99.99,,2013-05-17 21:35:00,
2013-05-17 14:40:00,63.0,-99.9,29.99,SW,235,8.4,20.4,-999,-99.99,,,-99.99,,2013-05-17 21:40:00,
2013-05-17 14:45:00,62.8,-99.9,29.98,ESE,111,7.9,7.9,-999,-99.99,,,-99.99,,2013-05-17 21:45:00,
2013-05-17 14:50:00,62.9,-99.9,29.99,South,187,5.8,17.4,-999,-99.99,,,-99.99,,2013-05-17 21:50:00,
2013-05-17 14:55:00,62.9,-99.9,29.99,North,359,0.0,11.3,-999,-99.99,,,-99.99,,2013-05-17 21:55:00,
2013-05-17 15:00:00,63.2,-99.9,29.99,West,265,8.9,9.0,-999,-99.99,,,-99.99,,2013-05-17 22:00:00,
2013-05-17 15:05:00,63.1,-99.9,29.98,WNW,292,4.3,13.2,-999,-99.99,,,-99.99,,2013-05-17 22:05:00,
2013-05-17 15:10:00,63.3,-99.9,29.99,West,275,0.0,0.0,-999,-99.99,,,-99.99,,2013-05-17 22:10:00,
2013-05-17 15:15:00,63.3,-99.9,29.99,WSW,247,15.4,22.2,-999,-99.99,,,-99.99,,2013-05-17 22:15:00,
2013-05-17 15:20:00,63.1,-99.9,29.99,SW,215,0.0,0.0,-999,-99.99,,,-99.99,,2013-05-17 22:20:00,
2013-05-17 15:25:00,63.2,-99.9,29.99,WNW,290,16.3,16.3,-999,-99.99,,,-99.99,,2013-05-17 22:25:00,
2013-05-17 15:30:00,63.0,-99.9,29.99,WNW,300,10.8,15.6,-999,-99.99,,,-99.99,,2013-05-17 22:30:00,
2013-05-17 15:35:00,63.2,-99.9,29.99,SW,235,0.0,15.3,-999,-99.99,,,-99.99,,2013-05-17 22:35:00,
2013-05-17 15:40:00,63.0,-99.9,29.99,WNW,303,0.0,0.0,-999,-99.99,,,-99.99,,2013-05-17 22:40:00,
2013-05-17 15:45:00,63.3,-99.9,29.99,SW,232,0.0,13.5,-999,-99.99,,,-99.99,,2013-05-17 22:45:00,
2013-05-17 15:50:00,63.2,-99.9,29.99,NW,306,9.0,12.4,-999,-99.99,,,-99.99,,2013-05-17 22:50:00,
2013-05-17 15:55:00,63.4,-99.9,29.99,WSW,247,0.0,17.2,-999,-99.99,,,-99.99,,2013-05-17 22:55:00,
2013-05-17 16:00:00,63.3,-99.9,29.99,West,278,8.7,15.8,-999,-99.99,,,-99.99,,2013-05-17 23:00:00,
2013-05-17 16:10:00,63.7,-99.9,29.99,NNW,335,0.0,17.2,-999,-99.99,,,-99.99,,2013-05-17 23:10:00,
2013-05-17 16:20:00,63.5,-99.9,29.99,South,186,8.9,15.1,-999,-99.99,,,-99.99,,2013-05-17 23:20:00,
2013-05-17 16:30:00,63.7,-99.9,29.99,ENE,67,0.0,8.5,-999,-99.99,,,-99.99,,2013-05-17 23:30:00,
2013-05-17 16:35:00,63.7,-99.9,29.99,East,100,8.7,20.0,-999,-99.99,,,-99.99,,2013-05-17 23:35:00,
2013-05-17 16:40:00,63.9,-99.9,29.99,SW,215,6.0,8.7,-999,-99.99,,,-99.99,,2013-05-17 23:40:00,
2013-05-17 16:50:00,64.1,-99.9,29.99,SW,223,0.0,23.8,-999,-99.99,,,-99.99,,2013-05-17 23:50:00,
2013-05-17 17:00:00,64.0,-99.9,29.99,SE,132,8.9,17.7,-999,-99.99,,,-99.99,,2013-05-18 00:00:00,
2013-05-17 17:10:00,63.6,-99.9,29.99,NW,317,8.4,15.3,-999,-99.99,,,-99.99,,2013-05-18 00:10:00,
2013-05-17 17:15:00,63.8,-99.9,29.99,WSW,242,10.8,19.0,-999,-99.99,,,-99.99,,2013-05-18 00:15:00,
2013-05-17 17:20:00,64.1,-99.9,29.99,WSW,242,0.0,15.9,-999,-99.99,,,-99.99,,2013-05-18 00:20:00,
2013-05-17 17:25:00,64.2,-99.9,29.99,East,98,0.0,0.0,-999,-99.99,,,-99.99,,2013-05-18 00:25:00,
2013-05-17 17:30:00,64.3,-99.9,29.99,East,98,0.0,0.0,-999,-99.99,,,-99.99,,2013-05-18 00:30:00,
2013-05-17 17:35:00,64.4,-99.9,29.99,NW,323,12.2,12.2,-999,-99.99,,,-99.99,,2013-05-18 00:35:00,
2013-05-17 17:40:00,64.3,-99.9,29.99,NW,316,9.0,9.0,-999,-99.99,,,-99.99,,2013-05-18 00:40:00,
2013-05-17 17:50:00,64.2,-99.9,29.99,West,263,0.0,0.0,-999,-99.99,,,-99.99,,2013-05-18 00:50:00,
2013-05-17 18:00:00,64.3,-99.9,29.99,SSE,166,0.0,0.0,-999,-99.99,,,-99.99,,2013-05-18 01:00:00,
2013-05-17 18:05:00,64.3,-99.9,29.99,SSE,166,0.0,0.0,-999,-99.99,,,-99.99,,2013-05-18 01:05:00,
2013-05-17 18:10:00,64.4,-99.9,29.99,SSE,166,0.0,0.0,-999,-99.99,,,-99.99,,2013-05-18 01:10:00,
2013-05-17 18:20:00,64.0,-99.9,29.99,West,271,6.9,7.2,-999,-99.99,,,-99.99,,2013-05-18 01:20:00,
2013-05-17 18:30:00,64.0,-99.9,29.99,SW,235,0.0,2.9,-999,-99.99,,,-99.99,,2013-05-18 01:30:00,
2013-05-17 18:35:00,64.1,-99.9,29.99,West,271,0.0,0.0,-999,-99.99,,,-99.99,,2013-05-18 01:35:00,
2013-05-17 18:40:00,64.3,-99.9,29.99,West,271,0.0,0.0,-999,-99.99,,,-99.99,,2013-05-18 01:40:00,
2013-05-17 18:50:00,64.1,-99.9,30.00,ENE,57,0.0,0.0,-999,-99.99,,,-99.99,,2013-05-18 01:50:00,
2013-05-17 19:00:00,63.9,-99.9,30.00,WSW,254,0.0,0.0,-999,-99.99,,,-99.99,,2013-05-18 02:00:00,
2013-05-17 19:05:00,64.0,-99.9,30.01,WSW,254,0.0,0.0,-999,-99.99,,,-99.99,,2013-05-18 02:05:00,
2013-05-17 19:10:00,63.9,-99.9,30.01,WSW,254,0.0,0.0,-999,-99.99,,,-99.99,,2013-05-18 02:10:00,
2013-05-17 19:15:00,63.9,-99.9,30.01,West,268,0.0,0.0,-999,-99.99,,,-99.99,,2013-05-18 02:15:00,
2013-05-17 19:20:00,63.8,-99.9,30.01,West,268,0.0,0.0,-999,-99.99,,,-99.99,,2013-05-18 02:20:00,
2013-05-17 19:30:00,63.3,-99.9,30.01,West,268,0.0,0.0,-999,-99.99,,,-99.99,,2013-05-18 02:30:00,
2013-05-17 19:40:00,62.9,-99.9,30.02,West,268,0.0,0.0,-999,-99.99,,,-99.99,,2013-05-18 02:40:00,
2013-05-17 19:45:00,62.9,-99.9,30.02,West,268,0.0,0.0,-999,-99.99,,,-99.99,,2013-05-18 02:45:00,
2013-05-17 19:50:00,62.8,-99.9,30.02,West,268,0.0,0.0,-999,-99.99,,,-99.99,,2013-05-18 02:50:00,
2013-05-17 19:55:00,62.8,-99.9,30.02,West,268,0.0,0.0,-999,-99.99,,,-99.99,,2013-05-18 02:55:00,
2013-05-17 20:00:00,62.3,-99.9,30.02,West,268,0.0,0.0,-999,-99.99,,,-99.99,,2013-05-18 03:00:00,
2013-05-17 20:10:00,61.6,-99.9,30.02,West,268,0.0,0.0,-999,-99.99,,,-99.99,,2013-05-18 03:10:00,
2013-05-17 20:20:00,61.2,-99.9,30.01,West,268,0.0,0.0,-999,-99.99,,,-99.99,,2013-05-18 03:20:00,
2013-05-17 20:30:00,61.0,-99.9,30.01,West,268,0.0,0.0,-999,-99.99,,,-99.99,,2013-05-18 03:30:00,
2013-05-17 20:40:00,60.0,-99.9,30.01,West,268,0.0,0.0,-999,-99.99,,,-99.99,,2013-05-18 03:40:00,
2013-05-17 20:50:00,60.5,-99.9,30.02,West,268,0.0,0.0,-999,-99.99,,,-99.99,,2013-05-18 03:50:00,
2013-05-17 21:00:00,59.8,-99.9,30.02,West,268,0.0,0.0,-999,-99.99,,,-99.99,,2013-05-18 04:00:00,
2013-05-17 21:05:00,59.8,-99.9,30.02,West,268,0.0,0.0,-999,-99.99,,,-99.99,,2013-05-18 04:05:00,
2013-05-17 21:10:00,59.8,-99.9,30.02,West,268,0.0,0.0,-999,-99.99,,,-99.99,,2013-05-18 04:10:00,
2013-05-17 21:15:00,59.7,-99.9,30.02,ENE,59,10.8,13.4,-999,-99.99,,,-99.99,,2013-05-18 04:15:00,
2013-05-17 21:20:00,59.2,-99.9,30.02,East,93,0.0,7.6,-999,-99.99,,,-99.99,,2013-05-18 04:20:00,
2013-05-17 21:30:00,59.4,-99.9,30.02,SE,127,9.0,20.3,-999,-99.99,,,-99.99,,2013-05-18 04:30:00,
2013-05-17 21:40:00,59.3,-99.9,30.02,East,97,0.0,14.0,-999,-99.99,,,-99.99,,2013-05-18 04:40:00,
2013-05-17 21:45:00,59.2,-99.9,30.02,ESE,103,0.0,0.0,-999,-99.99,,,-99.99,,2013-05-18 04:45:00,
2013-05-17 21:50:00,58.8,-99.9,30.01,East,97,0.0,12.6,-999,-99.99,,,-99.99,,2013-05-18 04:50:00,
2013-05-17 22:00:00,58.9,-99.9,30.02,ENE,63,0.0,8.4,-999,-99.99,,,-99.99,,2013-05-18 05:00:00,
2013-05-17 22:10:00,58.8,-99.9,30.02,East,100,0.0,0.0,-999,-99.99,,,-99.99,,2013-05-18 05:10:00,
2013-05-17 22:20:00,58.7,-99.9,30.02,SE,124,0.0,7.6,-999,-99.99,,,-99.99,,2013-05-18 05:20:00,
2013-05-17 22:30:00,57.9,-99.9,30.02,SE,127,14.2,17.2,-999,-99.99,,,-99.99,,2013-05-18 05:30:00,
2013-05-17 22:40:00,58.2,-99.9,30.02,SE,139,0.0,0.0,-999,-99.99,,,-99.99,,2013-05-18 05:40:00,
2013-05-17 22:50:00,58.1,-99.9,30.02,East,94,0.0,10.8,-999,-99.99,,,-99.99,,2013-05-18 05:50:00,
2013-05-17 23:00:00,57.8,-99.9,30.02,ESE,121,11.1,14.3,-999,-99.99,,,-99.99,,2013-05-18 06:00:00,
2013-05-17 23:05:00,57.9,-99.9,30.02,SE,127,0.0,0.0,-999,-99.99,,,-99.99,,2013-05-18 06:05:00,
2013-05-17 23:10:00,57.8,-99.9,30.02,ESE,118,11.1,15.3,-999,-99.99,,,-99.99,,2013-05-18 06:10:00,
2013-05-17 23:20:00,57.5,-99.9,30.02,East,79,0.0,0.0,-999,-99.99,,,-99.99,,2013-05-18 06:20:00,
2013-05-17 23:30:00,57.6,-99.9,30.02,NE,38,0.0,0.0,-999,-99.99,,,-99.99,,2013-05-18 06:30:00,
2013-05-17 23:40:00,57.1,-99.9,30.02,ESE,105,0.0,0.0,-999,-99.99,,,-99.99,,2013-05-18 06:40:00,
2013-05-17 23:50:00,57.1,-99.9,30.02,SSE,163,0.0,0.0,-999,-99.99,,,-99.99,,2013-05-18 06:50:00,
2013-05-17 23:55:00,56.8,-99.9,30.01,ESE,115,10.9,15.1,-999,-99.99,,,-99.99,,2013-05-18 06:55:00,